Location: Avon School (historical)
(37.7514°N, 90.2201°W)
Time: 13:23:13
(UTC+00:00)

Transit 2A Rocket - Pass Details

Date: 19 December 2025
Orbit: 581 x 903 km, 66.7° (Epoch: 13 January)

Event Time Altitude Azimuth Distance (km) Brightness Sun altitude
Rises 12:37:48 0° 208° (SSW) 3,241 8.2 -6.8°
Reaches altitude 10° 12:40:06 10° 208° (SSW) 2,363 7.5 -6.4°
Maximum altitude 12:45:37 85° 297° (WNW) 853 5.2 -5.4°
Drops below altitude 10° 12:51:34 10° 27° (NNE) 2,548 7.7 -4.3°
Sets 12:54:08 0° 28° (NNE) 3,512 8.4 -3.9°
